Tracking 18980 objects as of 23-Feb-2018
HD Live streaming from Space Station
objects crossing your sky now

USA 158

Track USA 158 now!
USA 158 is classified as:


NORAD ID: 26770
Int'l Code: 2001-020A
Perigee: 36,134.4 km
Apogee: 36,268.1 km
Inclination: 6.7 °
Period: 1,457.0 minutes
Semi major axis: 42572 km
RCS: Unknown
Launch date: May 18, 2001
Source: United States (US)
Launch site: AIR FORCE EASTERN TEST RANGE (AFETR)

Advanced technology demonstration satellite with laser communications experiment and operational UHF communications mission.
aabbcc
Your satellite tracking list
Your tracking list is empty




NASA's NSSDC Master Catalog

Two Line Element Set (TLE):
1 26770U 01020A   18037.92313371 0.00000000  00000-0  00000-0 0    06
2 26770   6.6679  46.2317 0015710  42.6675 317.4665  0.98835485    07
Source of the keplerian elements: McCants